Location: Beutels
(47.8767°N, 9.8584°E)
Time: 23:39:07
(UTC+00:00)

Cosmos 1805 Rocket - Pass Details

Date: 19 May 2025
Orbit: 600 x 623 km, 82.5° (Epoch: 22 June)

Event Time Altitude Azimuth Distance (km) Brightness Sun altitude
Rises 23:02:35 0° 347° (NNW) 2,917 8.5 -22.1°
Reaches altitude 10° 23:04:51 10° 344° (NNW) 2,004 7.2 -22.1°
Maximum altitude 23:09:12 59° 265° (W) 720 3.8 -22.1°
Enters shadow 23:09:42 55° 234° (SW) 750 3.7 -22.1°
